EHI
0 1 0 0 0 0 0 0 0 0 0 0 0 0 0 0 0 1 2 2 1 0 0 1 2 2 2 1 1 3 5 5 3 1 0 0 0 0 0 0 0 0 0
1 1 0 0 0 0 0 0 0 0 0 0 0 0 0 0 0 0 1 1 0 0 0 0 1 1 1 0 1 3 4 3 2 0 0 0 0 0 0 0 0 0 0
0 0 0 0 0 0 0 0 0 0 0 0 0 0 0 0 0 0 0 0 0 0 0 0 0 0 0 0 1 2 2 1 0 0 0 0 0 0 0 0 0 0 0
1 1 0 0 0 0 0 0 0 0 0 0 0 0 0 0 0 0 0 0 0 0 0 0 0 0 0 0 0 1 1 1 0 0 0 0 0 0 0 0 0 0 0
2 1 0 0 0 0 0 0 0 0 0 0 0 0 0 0 0 0 0 0 0 0 0 0 0 0 0 0 0 0 1 1 0 0 0 0 0 0 0 0 0 0 0
4 2 0 0 0 0 0 0 0 0 0 0 0 0 0 0 0 0 0 0 0 0 0 0 0 0 0 0 1 1 2 1 0 0 0 0 0 0 0 0 0 0 0
7 3 1 0 0 0 0 0 0 0 0 0 0 0 0 0 0 0 0 0 0 0 0 0 0 0 0 1 2 3 4 4 1 0 1 2 1 0 0 0 0 0 0
10 6 1 0 0 0 0 0 0 0 0 0 0 0 0 0 0 0 0 0 0 0 0 0 0 0 0 1 2 4 7 6 2 0 1 2 1 0 0 0 0 0 0
11 7 3 1 1 0 0 0 0 0 0 0 0 0 0 0 0 0 0 0 0 0 0 0 0 0 0 0 1 4 7 7 3 1 1 2 2 1 0 0 0 0 0
9 7 5 3 3 3 2 1 1 1 1 1 2 2 1 1 0 0 0 0 0 0 0 0 0 0 0 1 2 4 6 6 3 1 2 4 5 2 0 0 0 0 0
7 6 6 5 4 5 4 4 3 3 2 3 4 4 3 3 2 3 5 5 3 0 0 0 0 0 0 1 3 6 7 5 2 1 5 9 9 5 1 0 0 0 0
7 7 8 7 5 3 4 5 5 5 5 6 7 7 5 4 4 8 12 11 7 2 1 2 2 1 0 0 3 7 7 4 1 1 5 12 12 7 2 0 0 0 0
6 6 8 9 7 5 5 5 5 6 7 9 11 10 6 4 6 11 13 12 8 3 1 2 2 1 0 0 2 5 5 3 1 2 7 13 14 10 5 2 1 0 0
6 5 8 10 10 9 8 6 5 5 6 10 14 12 8 7 7 9 12 13 9 5 4 4 3 1 0 0 0 1 2 2 1 4 10 16 17 14 10 7 4 2 1
8 6 9 13 12 10 10 9 7 5 6 10 14 15 14 12 8 9 15 17 10 5 6 6 4 2 1 0 0 0 1 1 2 5 12 19 20 17 16 15 12 8 5
9 9 11 16 17 14 12 10 8 7 9 11 13 17 19 16 12 12 17 17 10 7 9 9 6 3 2 2 1 1 2 2 3 6 11 18 21 20 22 23 21 17 13
13 14 15 18 23 23 17 11 7 7 10 12 14 18 21 18 15 14 15 14 10 10 13 13 10 7 5 3 3 2 4 7 9 10 12 17 19 19 24 27 24 20 17
26 26 20 21 29 31 24 16 10 9 9 11 16 21 22 19 16 15 15 14 14 13 13 13 12 11 7 4 4 5 7 12 15 15 16 20 19 19 23 26 25 21 19
45 40 28 26 34 35 30 24 19 15 11 12 18 23 23 20 17 16 16 18 19 16 11 10 12 13 9 5 5 6 8 11 14 15 17 18 20 23 24 25 24 22 20
60 54 42 37 39 38 33 29 25 22 18 17 22 26 24 21 19 17 18 20 21 17 12 10 12 13 11 8 5 4 4 6 10 13 14 13 16 21 27 29 26 21 19
70 67 60 51 48 45 38 32 28 27 25 24 27 29 27 22 20 19 19 20 20 17 13 11 12 13 11 9 6 3 2 3 7 11 13 12 11 14 23 33 34 27 22
78 75 72 68 64 57 46 36 31 30 28 27 29 29 27 23 19 18 19 20 18 15 13 13 14 13 10 7 6 4 2 3 4 7 12 14 12 12 20 31 38 37 33
76 73 72 76 75 66 53 42 37 35 31 28 29 31 29 24 19 18 19 19 16 14 14 15 16 13 9 7 5 4 4 4 4 6 8 12 14 17 18 23 32 37 38
69 68 71 77 77 68 57 48 44 42 37 31 33 35 33 29 24 22 22 22 18 15 13 13 14 13 9 6 5 4 4 5 5 5 5 8 13 18 18 18 22 28 33
63 67 74 79 76 69 61 53 49 45 39 34 35 36 35 33 30 27 28 30 26 18 14 12 12 12 9 7 5 4 4 4 4 3 3 5 9 13 17 16 14 19 24
60 66 77 80 76 70 62 56 51 46 38 34 33 34 35 34 32 30 32 35 32 23 17 15 13 10 9 7 6 5 4 3 2 2 3 4 5 9 14 13 11 14 19
Wind_Speed
13 13 13 13 13 14 14 14 14 15 15 15 15 15 15 16 16 16 16 16 15 15 15 15 15 16 16 16 16 16 16 16 16 17 17 17 16 14 13 14 15 13 16
16 14 13 13 13 14 14 14 14 14 15 15 15 15 15 15 15 15 15 15 15 15 15 16 15 16 16 15 15 14 14 14 15 16 16 15 14 13 12 13 15 11 15
16 14 13 12 13 13 13 13 14 14 14 14 15 14 14 14 15 15 14 15 15 15 15 15 15 15 15 14 13 13 12 12 13 13 13 10 11 14 15 16 16 15 14
16 14 13 12 13 13 13 13 13 13 14 14 14 14 13 14 14 14 14 14 14 15 15 15 14 14 14 13 12 11 10 9 9 9 6 8 10 14 15 15 14 14 14
16 14 13 13 13 12 12 12 12 13 13 13 13 13 13 13 13 13 13 13 14 14 14 14 14 13 12 11 9 7 6 5 4 4 6 9 8 12 14 14 13 13 13
16 15 13 12 12 12 12 12 11 11 12 12 12 12 12 12 12 12 12 12 13 13 13 13 12 11 10 8 7 5 2 1 1 4 7 9 8 11 13 13 12 12 12
17 15 14 13 12 12 11 11 11 11 11 11 11 11 11 11 11 11 11 11 11 11 11 11 11 10 8 6 5 2 1 2 0 5 7 9 9 11 12 12 11 11 11
17 16 13 13 12 12 11 11 10 10 10 10 10 10 10 10 10 10 9 10 10 10 10 10 9 8 7 4 2 0 2 4 2 7 9 9 10 11 11 11 10 10 10
16 15 13 12 11 11 10 10 9 9 9 8 8 8 9 9 9 8 8 8 9 9 9 8 8 7 5 3 0 2 4 4 1 4 10 8 11 11 11 10 9 9 9
12 13 12 12 11 10 9 9 9 8 8 7 7 7 7 8 8 7 7 7 8 8 8 7 7 6 4 3 3 4 5 4 2 4 7 9 12 11 11 10 9 8 8
9 9 9 11 10 10 10 10 9 8 7 7 6 7 6 5 6 6 7 8 8 7 7 7 6 6 5 5 6 6 5 3 2 4 6 12 13 12 11 10 9 8 8
8 8 7 8 6 6 7 7 6 6 6 4 4 5 3 2 3 5 8 9 8 7 7 7 7 6 6 5 7 7 4 4 2 5 7 14 13 12 11 10 9 8 8
6 7 8 7 4 4 4 4 2 3 4 4 4 3 2 1 3 4 4 5 5 6 5 6 7 6 6 3 3 4 3 2 2 5 9 14 13 12 11 10 9 9 9
6 7 8 7 4 4 4 2 2 2 2 2 3 2 2 1 1 1 2 3 3 3 3 3 3 3 3 2 2 2 2 1 2 5 7 13 12 12 12 11 10 10 9
6 7 7 7 5 3 2 1 1 2 1 2 2 1 1 1 1 1 1 1 2 2 2 2 2 1 2 2 2 2 1 1 2 5 6 12 12 12 12 12 12 11 11
7 7 7 7 5 3 1 1 1 1 1 1 2 2 1 1 1 0 0 1 1 1 1 1 2 2 2 1 2 2 2 2 2 4 6 8 12 12 12 13 13 13 13
8 7 7 7 7 4 3 2 1 1 1 1 2 2 1 1 1 1 1 1 1 1 1 1 2 2 3 3 3 3 2 3 2 4 5 5 7 11 13 14 14 14 14
8 7 5 6 7 5 3 1 1 0 1 1 1 1 1 1 1 1 2 1 2 2 1 2 2 2 2 1 2 2 3 3 4 4 4 6 6 7 11 15 15 14 15
8 7 5 3 6 5 4 3 2 0 0 0 0 1 1 0 1 1 2 1 2 2 1 2 1 1 1 2 3 3 3 3 4 6 6 6 6 6 6 12 16 15 14
9 7 6 4 4 4 3 2 2 2 1 1 1 1 1 1 1 1 1 1 1 1 1 1 1 2 2 3 5 3 2 3 3 4 5 5 5 6 6 7 8 9 12
8 8 7 5 4 3 2 2 2 2 1 1 1 1 1 1 1 1 2 1 1 1 2 2 2 2 3 2 2 3 3 4 4 3 3 3 3 4 4 5 6 5 5
8 8 7 6 6 4 3 2 2 1 1 1 1 1 1 1 2 2 1 1 2 1 2 3 3 2 3 2 1 1 2 2 2 3 1 1 2 2 2 4 4 4 4
10 9 8 7 6 5 4 2 2 1 1 0 1 1 1 2 2 2 1 2 2 2 2 3 3 3 3 2 2 2 1 2 1 1 1 1 1 1 1 2 3 3 3
10 10 7 7 6 5 4 3 3 2 2 1 1 1 1 1 2 2 2 2 2 2 2 3 2 2 2 2 2 2 2 1 1 1 1 0 1 1 1 1 1 1 2
10 10 9 7 6 5 4 3 3 2 2 1 1 1 1 2 2 2 2 1 1 2 2 2 2 2 2 2 2 2 2 2 2 2 1 1 1 1 2 1 0 1 2
9 9 9 8 6 5 5 4 3 2 1 1 0 0 1 0 1 1 1 1 1 1 2 2 2 2 2 2 2 1 1 1 2 2 2 1 0 1 1 1 1 1 2
Wind_Direction
94 91 84 82 81 80 80 82 81 81 80 78 77 83 83 82 81 81 82 83 85 89 91 92 93 92 93 93 94 95 95 97 98 100 99 97 97 99 102 107 105 100 106
102 97 88 85 83 82 81 82 84 83 82 80 79 82 82 85 84 84 83 82 84 90 91 91 93 95 96 96 98 99 100 102 106 108 106 100 96 94 95 93 94 105 108
105 103 94 85 85 84 83 83 84 84 84 83 83 82 82 84 84 85 85 85 86 89 90 92 95 97 98 98 100 104 107 111 116 120 119 107 98 93 94 96 101 107 108
102 99 93 90 87 86 85 85 85 85 86 87 87 86 84 84 85 86 86 86 89 91 93 95 97 98 99 100 102 106 113 122 130 133 123 109 104 101 102 103 107 109 110
100 100 98 94 90 88 86 86 85 86 87 88 88 89 88 87 87 87 88 88 90 93 95 96 98 99 100 101 102 103 110 126 141 124 96 95 96 109 108 109 109 110 113
111 105 102 98 94 92 89 88 87 86 87 88 89 90 90 89 88 90 91 92 93 93 95 99 100 102 104 105 105 104 110 160 233 116 108 107 108 114 113 113 113 113 113
111 110 110 106 101 97 94 92 90 88 88 88 90 91 91 91 91 91 93 95 96 97 98 102 104 104 107 109 106 99 9 329 137 106 100 104 112 119 118 118 118 118 119
115 115 117 115 111 106 101 98 95 94 93 92 94 96 95 94 93 93 95 99 101 102 104 106 109 110 113 113 106 1 315 321 103 117 107 110 123 125 124 123 123 124 126
118 125 132 129 123 117 111 108 106 103 104 104 105 107 108 107 104 103 102 105 107 111 112 115 117 119 122 133 186 299 310 325 352 121 117 119 130 131 132 133 132 131 133
121 126 133 133 137 136 129 127 124 123 125 124 124 128 131 127 124 126 120 118 121 125 128 130 133 136 148 187 240 271 293 311 232 121 114 128 139 140 141 142 142 141 141
108 117 128 128 141 145 139 141 147 147 152 156 157 168 172 164 152 147 131 136 138 143 149 153 155 162 184 212 235 252 272 247 186 112 116 138 147 149 150 151 152 153 153
119 120 112 114 124 129 129 145 162 157 161 188 159 172 185 158 135 133 142 151 158 165 172 179 181 191 215 213 217 230 242 223 173 120 127 146 151 154 158 161 163 165 166
128 119 114 113 122 116 119 144 136 136 151 169 149 161 152 146 150 141 155 161 178 188 198 185 196 210 219 224 194 199 226 238 141 117 140 154 156 160 166 171 174 176 178
132 123 119 114 84 56 65 94 134 136 150 144 136 164 141 156 148 118 127 160 181 190 196 185 200 204 217 230 211 206 214 208 112 116 149 161 163 168 174 179 184 187 188
135 124 107 105 101 82 52 347 80 97 114 119 122 123 122 122 91 80 90 180 207 185 178 186 194 216 228 225 231 225 236 222 131 135 148 169 172 177 183 188 192 195 197
146 133 126 128 125 125 126 3 12 75 100 95 104 100 60 67 69 40 221 262 258 214 189 203 214 191 217 230 235 220 204 219 168 153 154 175 183 187 191 195 199 202 204
146 135 140 148 145 155 165 209 192 190 141 118 113 125 119 100 127 248 265 241 262 250 190 214 258 226 223 221 223 225 205 216 194 179 170 173 185 198 202 203 204 205 207
147 142 163 164 146 155 170 219 272 331 89 96 109 127 119 117 182 250 261 248 261 251 218 208 240 251 254 254 242 229 212 201 200 201 192 190 189 195 204 208 207 208 211
143 147 164 152 142 162 173 193 222 199 65 253 164 102 101 230 242 239 262 258 253 257 257 256 204 253 256 264 258 236 227 219 202 214 209 207 198 188 186 199 206 209 211
148 152 162 159 151 166 171 194 224 215 203 214 175 119 139 258 280 291 272 261 282 298 296 288 295 276 263 258 269 270 263 255 235 217 214 210 199 189 186 178 192 208 210
157 160 160 171 166 174 187 201 210 207 214 206 173 138 131 294 302 287 309 330 293 287 290 297 282 269 255 246 272 286 271 244 236 230 231 216 191 185 170 162 170 182 192
163 164 164 175 172 186 196 204 209 218 218 187 138 131 175 248 276 259 234 269 269 262 271 276 267 259 260 236 215 256 287 295 277 259 241 202 198 158 150 159 155 168 171
171 173 178 176 174 185 185 197 220 184 259 200 159 173 213 231 248 281 271 272 278 258 253 254 258 243 252 270 225 199 215 238 275 275 229 184 135 126 136 125 140 158 172
175 174 173 169 170 177 188 202 205 199 206 200 183 172 199 223 252 254 262 260 281 290 280 266 264 264 256 261 256 223 229 237 205 286 316 63 163 121 78 88 122 142 156
176 171 167 162 167 173 184 196 205 221 224 207 183 168 204 220 244 260 257 276 282 289 301 294 307 287 263 256 260 254 247 247 240 220 252 310 14 61 87 69 32 88 93
171 168 161 159 165 170 181 191 197 214 240 299 41 295 222 221 235 257 285 295 305 301 302 301 302 293 285 281 279 272 245 231 228 220 213 227 218 2 60 71 65 61 80